Time,TemperatureF,DewpointF,PressureIn,WindDirection,WindDirectionDegrees,WindSpeedMPH,WindSpeedGustMPH,Humidity,HourlyPrecipIn,Conditions,Clouds,dailyrainin,SolarRadiationWatts/m^2,SoftwareType,DateUTC
2013-02-10 00:11:00,38.0,33.0,-100.00,NE,44,5.0,14.0,82,0.00,,,0.23,0.000000,,2013-02-10 09:11:00,
2013-02-10 00:21:00,38.0,33.0,-100.00,NE,44,5.0,14.0,82,0.00,,,0.23,0.000000,,2013-02-10 09:21:00,
2013-02-10 00:31:00,38.0,33.0,-100.00,NE,44,5.0,14.0,82,0.00,,,0.23,0.000000,,2013-02-10 09:31:00,
2013-02-10 00:41:00,38.0,33.0,-100.00,NE,44,5.0,14.0,82,0.00,,,0.23,0.000000,,2013-02-10 09:41:00,
2013-02-10 00:51:00,38.0,33.0,-100.00,NE,44,5.0,14.0,82,0.00,,,0.23,0.000000,,2013-02-10 09:51:00,
2013-02-10 01:11:00,39.0,32.0,-100.00,ENE,63,4.0,14.0,77,0.00,,,0.23,0.000000,,2013-02-10 10:11:00,
2013-02-10 01:21:00,39.0,32.0,-100.00,ENE,63,4.0,14.0,77,0.00,,,0.23,0.000000,,2013-02-10 10:21:00,
2013-02-10 01:31:00,39.0,32.0,-100.00,ENE,63,4.0,14.0,77,0.00,,,0.23,0.000000,,2013-02-10 10:31:00,
2013-02-10 01:41:00,39.0,32.0,-100.00,ENE,63,4.0,14.0,77,0.00,,,0.23,0.000000,,2013-02-10 10:41:00,
2013-02-10 01:51:00,39.0,32.0,-100.00,ENE,63,4.0,14.0,77,0.00,,,0.23,0.000000,,2013-02-10 10:51:00,
2013-02-10 02:11:00,38.0,32.0,-100.00,ENE,58,4.0,14.0,80,0.00,,,0.23,0.000000,,2013-02-10 11:11:00,
2013-02-10 02:21:00,38.0,32.0,-100.00,ENE,58,4.0,14.0,80,0.00,,,0.23,0.000000,,2013-02-10 11:21:00,
2013-02-10 02:32:00,38.0,32.0,-100.00,ENE,58,4.0,14.0,80,0.00,,,0.23,0.000000,,2013-02-10 11:32:00,
2013-02-10 02:42:00,38.0,32.0,-100.00,ENE,58,4.0,14.0,80,0.00,,,0.23,0.000000,,2013-02-10 11:42:00,
2013-02-10 02:52:00,38.0,32.0,-100.00,ENE,58,4.0,14.0,80,0.00,,,0.23,0.000000,,2013-02-10 11:52:00,
2013-02-10 03:12:00,39.0,32.0,-100.00,NE,53,4.0,11.0,75,0.00,,,0.23,0.000000,,2013-02-10 12:12:00,
2013-02-10 03:21:00,39.0,32.0,-100.00,NE,53,4.0,11.0,75,0.00,,,0.23,0.000000,,2013-02-10 12:21:00,
2013-02-10 03:32:00,39.0,32.0,-100.00,NE,53,4.0,11.0,75,0.00,,,0.23,0.000000,,2013-02-10 12:32:00,
2013-02-10 03:41:00,39.0,32.0,-100.00,NE,53,4.0,11.0,75,0.00,,,0.23,0.000000,,2013-02-10 12:41:00,
2013-02-10 03:52:00,39.0,32.0,-100.00,NE,53,4.0,11.0,75,0.00,,,0.23,0.000000,,2013-02-10 12:52:00,
2013-02-10 06:11:00,39.0,31.0,-100.00,ESE,113,4.0,14.0,72,-99.99,,,0.23,0.000000,,2013-02-10 15:11:00,
2013-02-10 06:21:00,39.0,31.0,-100.00,ESE,113,4.0,14.0,72,-99.99,,,0.23,0.000000,,2013-02-10 15:21:00,
2013-02-10 06:31:00,39.0,31.0,-100.00,ESE,113,4.0,14.0,72,-99.99,,,0.23,0.000000,,2013-02-10 15:31:00,
2013-02-10 06:41:00,39.0,31.0,-100.00,ESE,113,4.0,14.0,72,-99.99,,,0.23,0.000000,,2013-02-10 15:41:00,
2013-02-10 06:51:00,39.0,31.0,-100.00,ESE,113,4.0,14.0,72,-99.99,,,0.23,0.000000,,2013-02-10 15:51:00,
2013-02-10 07:11:00,37.0,34.0,-100.00,SSE,153,8.0,16.0,89,0.01,,,0.24,0.000000,,2013-02-10 16:11:00,
2013-02-10 07:21:00,37.0,34.0,-100.00,SSE,153,8.0,16.0,89,0.01,,,0.24,0.000000,,2013-02-10 16:21:00,
2013-02-10 07:32:00,37.0,34.0,-100.00,SSE,153,8.0,16.0,89,0.01,,,0.24,0.000000,,2013-02-10 16:32:00,
2013-02-10 07:42:00,37.0,34.0,-100.00,SSE,153,8.0,16.0,89,0.01,,,0.24,0.000000,,2013-02-10 16:42:00,
2013-02-10 07:51:00,37.0,34.0,-100.00,SSE,153,8.0,16.0,89,0.01,,,0.24,0.000000,,2013-02-10 16:51:00,
2013-02-10 08:21:00,35.0,32.0,-100.00,SSE,157,9.0,19.0,89,0.01,,,0.25,0.000000,,2013-02-10 17:21:00,
2013-02-10 08:32:00,35.0,32.0,-100.00,SSE,157,9.0,19.0,89,0.01,,,0.25,0.000000,,2013-02-10 17:32:00,
2013-02-10 08:42:00,35.0,32.0,-100.00,SSE,157,9.0,19.0,89,0.01,,,0.25,0.000000,,2013-02-10 17:42:00,
2013-02-10 08:52:00,35.0,32.0,-100.00,SSE,157,9.0,19.0,89,0.01,,,0.25,0.000000,,2013-02-10 17:52:00,
2013-02-10 09:21:00,35.0,29.0,-100.00,SSE,152,8.0,18.0,80,0.00,,,0.25,0.000000,,2013-02-10 18:21:00,
2013-02-10 09:32:00,35.0,29.0,-100.00,SSE,152,8.0,18.0,80,0.00,,,0.25,0.000000,,2013-02-10 18:32:00,
2013-02-10 09:42:00,35.0,29.0,-100.00,SSE,152,8.0,18.0,80,0.00,,,0.25,0.000000,,2013-02-10 18:42:00,
2013-02-10 09:52:00,35.0,29.0,-100.00,SSE,152,8.0,18.0,80,0.00,,,0.25,0.000000,,2013-02-10 18:52:00,
2013-02-10 10:11:00,36.0,29.0,-100.00,SSE,153,7.0,17.0,75,0.00,,,0.25,22.000000,,2013-02-10 19:11:00,
2013-02-10 10:21:00,36.0,29.0,-100.00,SSE,153,7.0,17.0,75,0.00,,,0.25,22.000000,,2013-02-10 19:21:00,
2013-02-10 10:32:00,36.0,29.0,-100.00,SSE,153,7.0,17.0,75,0.00,,,0.25,22.000000,,2013-02-10 19:32:00,
2013-02-10 10:42:00,36.0,29.0,-100.00,SSE,153,7.0,17.0,75,0.00,,,0.25,22.000000,,2013-02-10 19:42:00,
2013-02-10 10:51:00,36.0,29.0,-100.00,SSE,153,7.0,17.0,75,0.00,,,0.25,22.000000,,2013-02-10 19:51:00,
2013-02-10 11:11:00,37.0,28.0,-100.00,South,169,3.0,14.0,69,0.00,,,0.25,53.000000,,2013-02-10 20:11:00,
2013-02-10 11:21:00,37.0,28.0,-100.00,South,169,3.0,14.0,69,0.00,,,0.25,53.000000,,2013-02-10 20:21:00,
2013-02-10 11:32:00,37.0,28.0,-100.00,South,169,3.0,14.0,69,0.00,,,0.25,53.000000,,2013-02-10 20:32:00,
2013-02-10 11:42:00,37.0,28.0,-100.00,South,169,3.0,14.0,69,0.00,,,0.25,53.000000,,2013-02-10 20:42:00,
2013-02-10 11:52:00,37.0,28.0,-100.00,South,169,3.0,14.0,69,0.00,,,0.25,53.000000,,2013-02-10 20:52:00,
2013-02-10 12:11:00,40.0,26.0,-100.00,SE,127,2.0,9.0,56,0.00,,,0.25,155.000000,,2013-02-10 21:11:00,
2013-02-10 12:21:00,40.0,26.0,-100.00,SE,127,2.0,9.0,56,0.00,,,0.25,155.000000,,2013-02-10 21:21:00,
2013-02-10 12:32:00,40.0,26.0,-100.00,SE,127,2.0,9.0,56,0.00,,,0.25,155.000000,,2013-02-10 21:32:00,
2013-02-10 12:42:00,40.0,26.0,-100.00,SE,127,2.0,9.0,56,0.00,,,0.25,155.000000,,2013-02-10 21:42:00,
2013-02-10 12:51:00,40.0,26.0,-100.00,SE,127,2.0,9.0,56,0.00,,,0.25,155.000000,,2013-02-10 21:51:00,
2013-02-10 13:21:00,41.0,31.0,-100.00,ENE,62,0.0,5.0,66,0.00,,,0.25,109.000000,,2013-02-10 22:21:00,
2013-02-10 13:32:00,41.0,31.0,-100.00,ENE,62,0.0,5.0,66,0.00,,,0.25,109.000000,,2013-02-10 22:32:00,
2013-02-10 13:42:00,41.0,31.0,-100.00,ENE,62,0.0,5.0,66,0.00,,,0.25,109.000000,,2013-02-10 22:42:00,
2013-02-10 13:52:00,41.0,31.0,-100.00,ENE,62,0.0,5.0,66,0.00,,,0.25,109.000000,,2013-02-10 22:52:00,
2013-02-10 14:11:00,40.0,26.0,-100.00,SSW,209,3.0,6.0,58,0.00,,,0.14,122.000000,,2013-02-10 23:11:00,
2013-02-10 14:21:00,40.0,26.0,-100.00,SSW,209,3.0,6.0,58,0.00,,,0.14,122.000000,,2013-02-10 23:21:00,
2013-02-10 14:32:00,40.0,26.0,-100.00,SSW,209,3.0,6.0,58,0.00,,,0.14,122.000000,,2013-02-10 23:32:00,
2013-02-10 14:41:00,40.0,26.0,-100.00,SSW,209,3.0,6.0,58,0.00,,,0.14,122.000000,,2013-02-10 23:41:00,
2013-02-10 14:52:00,40.0,26.0,-100.00,SSW,209,3.0,6.0,58,0.00,,,0.14,122.000000,,2013-02-10 23:52:00,
2013-02-10 15:22:00,36.0,31.0,-100.00,SW,230,2.0,10.0,81,0.00,,,0.06,66.000000,,2013-02-11 00:22:00,
2013-02-10 15:32:00,36.0,31.0,-100.00,SW,230,2.0,10.0,81,0.00,,,0.06,66.000000,,2013-02-11 00:32:00,
2013-02-10 15:41:00,36.0,31.0,-100.00,SW,230,2.0,10.0,81,0.00,,,0.06,66.000000,,2013-02-11 00:41:00,
2013-02-10 15:51:00,36.0,31.0,-100.00,SW,230,2.0,10.0,81,0.00,,,0.06,66.000000,,2013-02-11 00:51:00,
2013-02-10 16:11:00,34.0,30.0,-100.00,SW,226,3.0,9.0,84,0.00,,,0.03,59.000000,,2013-02-11 01:11:00,
2013-02-10 16:21:00,34.0,30.0,-100.00,SW,226,3.0,9.0,84,0.00,,,0.03,59.000000,,2013-02-11 01:21:00,
2013-02-10 16:32:00,34.0,30.0,-100.00,SW,226,3.0,9.0,84,0.00,,,0.03,59.000000,,2013-02-11 01:32:00,
2013-02-10 16:41:00,34.0,30.0,-100.00,SW,226,3.0,9.0,84,0.00,,,0.03,59.000000,,2013-02-11 01:41:00,
2013-02-10 16:51:00,34.0,30.0,-100.00,SW,226,3.0,9.0,84,0.00,,,0.03,59.000000,,2013-02-11 01:51:00,
2013-02-10 17:21:00,32.0,31.0,-100.00,NNE,22,0.0,5.0,95,0.00,,,0.03,35.000000,,2013-02-11 02:21:00,
2013-02-10 17:31:00,32.0,31.0,-100.00,NNE,22,0.0,5.0,95,0.00,,,0.03,35.000000,,2013-02-11 02:31:00,
2013-02-10 17:41:00,32.0,31.0,-100.00,NNE,22,0.0,5.0,95,0.00,,,0.03,35.000000,,2013-02-11 02:41:00,
2013-02-10 17:52:00,32.0,31.0,-100.00,NNE,22,0.0,5.0,95,0.00,,,0.03,35.000000,,2013-02-11 02:52:00,
2013-02-10 18:21:00,32.0,32.0,-100.00,South,177,1.0,6.0,98,0.00,,,0.03,4.000000,,2013-02-11 03:21:00,
2013-02-10 18:31:00,32.0,32.0,-100.00,South,177,1.0,6.0,98,0.00,,,0.03,4.000000,,2013-02-11 03:31:00,
2013-02-10 18:41:00,32.0,32.0,-100.00,South,177,1.0,6.0,98,0.00,,,0.03,4.000000,,2013-02-11 03:41:00,
2013-02-10 18:52:00,32.0,32.0,-100.00,South,177,1.0,6.0,98,0.00,,,0.03,4.000000,,2013-02-11 03:52:00,
2013-02-10 19:21:00,31.0,31.0,-100.00,SW,224,0.0,4.0,100,0.00,,,0.02,0.000000,,2013-02-11 04:21:00,
2013-02-10 19:31:00,31.0,31.0,-100.00,SW,224,0.0,4.0,100,0.00,,,0.02,0.000000,,2013-02-11 04:31:00,
2013-02-10 19:41:00,31.0,31.0,-100.00,SW,224,0.0,4.0,100,0.00,,,0.02,0.000000,,2013-02-11 04:41:00,
2013-02-10 19:51:00,31.0,31.0,-100.00,SW,224,0.0,4.0,100,0.00,,,0.02,0.000000,,2013-02-11 04:51:00,
2013-02-10 20:11:00,31.0,31.0,-100.00,SSE,161,0.0,2.0,100,0.00,,,0.02,0.000000,,2013-02-11 05:11:00,
2013-02-10 20:22:00,31.0,31.0,-100.00,SSE,161,0.0,2.0,100,0.00,,,0.02,0.000000,,2013-02-11 05:22:00,
2013-02-10 20:31:00,31.0,31.0,-100.00,SSE,161,0.0,2.0,100,0.00,,,0.02,0.000000,,2013-02-11 05:31:00,
2013-02-10 20:41:00,31.0,31.0,-100.00,SSE,161,0.0,2.0,100,0.00,,,0.02,0.000000,,2013-02-11 05:41:00,
2013-02-10 20:52:00,31.0,31.0,-100.00,SSE,161,0.0,2.0,100,0.00,,,0.02,0.000000,,2013-02-11 05:52:00,
2013-02-10 21:11:00,31.0,31.0,-100.00,South,175,0.0,3.0,100,0.00,,,0.02,0.000000,,2013-02-11 06:11:00,
2013-02-10 21:21:00,31.0,31.0,-100.00,South,175,0.0,3.0,100,0.00,,,0.02,0.000000,,2013-02-11 06:21:00,
2013-02-10 21:32:00,31.0,31.0,-100.00,South,175,0.0,3.0,100,0.00,,,0.02,0.000000,,2013-02-11 06:32:00,
2013-02-10 21:42:00,31.0,31.0,-100.00,South,175,0.0,3.0,100,0.00,,,0.02,0.000000,,2013-02-11 06:42:00,
2013-02-10 21:51:00,31.0,31.0,-100.00,South,175,0.0,3.0,100,0.00,,,0.02,0.000000,,2013-02-11 06:51:00,
2013-02-10 22:11:00,30.0,30.0,-100.00,NNE,15,0.0,2.0,100,0.00,,,0.02,0.000000,,2013-02-11 07:11:00,
2013-02-10 22:21:00,30.0,30.0,-100.00,NNE,15,0.0,2.0,100,0.00,,,0.02,0.000000,,2013-02-11 07:21:00,
2013-02-10 22:32:00,30.0,30.0,-100.00,NNE,15,0.0,2.0,100,0.00,,,0.02,0.000000,,2013-02-11 07:32:00,
2013-02-10 22:41:00,30.0,30.0,-100.00,NNE,15,0.0,2.0,100,0.00,,,0.02,0.000000,,2013-02-11 07:41:00,
2013-02-10 22:51:00,30.0,30.0,-100.00,NNE,15,0.0,2.0,100,0.00,,,0.02,0.000000,,2013-02-11 07:51:00,
2013-02-10 23:11:00,30.0,30.0,-100.00,NE,47,0.0,1.0,100,0.00,,,0.02,0.000000,,2013-02-11 08:11:00,
2013-02-10 23:21:00,30.0,30.0,-100.00,NE,47,0.0,1.0,100,0.00,,,0.02,0.000000,,2013-02-11 08:21:00,
2013-02-10 23:31:00,30.0,30.0,-100.00,NE,47,0.0,1.0,100,0.00,,,0.02,0.000000,,2013-02-11 08:31:00,
2013-02-10 23:42:00,30.0,30.0,-100.00,NE,47,0.0,1.0,100,0.00,,,0.02,0.000000,,2013-02-11 08:42:00,
2013-02-10 23:51:00,30.0,30.0,-100.00,NE,47,0.0,1.0,100,0.00,,,0.02,0.000000,,2013-02-11 08:51:00,